Horseshoe Bay, TX

3:18 PM MDT on September 19, 2017 (GMT -0600)
Horseshoe Bay

Weather History for KDZB - March, 2014

Change the Weather History Date:

Saturday, March 15, 2014

  Actual Average (KBMQ) Record (KBMQ)
Temperature  
Mean Temperature 68 °F -  
Max Temperature 75 °F 65 °F 87 °F (2016)
Min Temperature 61 °F 46 °F 34 °F (1999)
Cooling Degree Days 3    
Growing Degree Days 18 (Base 50)    
Moisture  
Dew Point 59 °F    
Average Humidity 79    
Maximum Humidity 100    
Minimum Humidity 52    
Precipitation  
Precipitation 0.00 in - - ()
Sea Level Pressure  
Sea Level Pressure 29.82 in    
Wind  
Wind Speed 4 mph (South)    
Max Wind Speed 13 mph    
Max Gust Speed 17 mph    
Visibility 9 miles    
Events Rain    
Averages and records for this station are not official NWS values.
T = Trace of Precipitation, MM = Missing Value Source: NWS Daily Summary

Daily Weather History Graph

Daily Weather History Graph

Search for Another Location

Airport or City:

Trip Planner

Search our weather history database for the weather conditions in past years. The results will help you decide how hot, cold, wet, or windy it might be!

Date:

Astronomy

Mar. 15, 2014 Rise Set
Actual Time 6:43 AM MDT 6:41 PM MDT
Civil Twilight 6:19 AM MDT 7:05 PM MDT
Nautical Twilight 5:51 AM MDT 7:33 PM MDT
Astronomical Twilight 5:23 AM MDT 8:01 PM MDT
Moon 6:02 PM MDT (3/15) 5:53 AM MDT (3/15)
Length of Visible Light 12h 46m
Length of Day
11h 58m
Waxing Gibbous, 99% of the Moon is Illuminated
Mar 15
Waxing Gibbous
Mar 16
Full
Mar 23
Last Quarter
Mar 30
New
Apr 7
First Quarter

Hourly Weather History & Observations

Time (MDT) Temp. Dew Point Humidity Pressure Visibility Wind Dir Wind Speed Gust Speed Precip Events Conditions
12:15 AM 62.2 °F 56.8 °F 82% 29.95 in 10.0 mi SSE 4.6 mph - N/A   Scattered Clouds
12:35 AM 62.6 °F 57.2 °F 82% 29.95 in 10.0 mi SSE 4.6 mph - N/A   Mostly Cloudy
12:55 AM 62.8 °F 57.6 °F 83% 29.95 in 10.0 mi SSE 3.5 mph - N/A   Mostly Cloudy
1:15 AM 63.5 °F 58.1 °F 83% 29.95 in 10.0 mi SSE 4.6 mph - N/A   Overcast
1:35 AM 63.5 °F 58.1 °F 83% 29.94 in 10.0 mi SSE 5.8 mph - N/A   Overcast
1:55 AM 63.5 °F 58.3 °F 83% 29.94 in 10.0 mi SSE 4.6 mph - N/A   Overcast
2:15 AM 63.5 °F 58.3 °F 83% 29.94 in 10.0 mi SSE 5.8 mph - N/A   Overcast
2:35 AM 63.5 °F 58.5 °F 84% 29.93 in 10.0 mi South 3.5 mph - N/A   Overcast
2:55 AM 63.5 °F 58.6 °F 84% 29.93 in 10.0 mi Calm Calm - N/A   Overcast
3:15 AM 63.5 °F 59.0 °F 85% 29.92 in 10.0 mi SSE 5.8 mph - N/A   Overcast
3:35 AM 62.8 °F 59.2 °F 88% 29.92 in 10.0 mi South 4.6 mph - N/A   Overcast
3:55 AM 62.6 °F 62.6 °F 100% 29.91 in 7.0 mi SSE 4.6 mph - N/A   Overcast
4:15 AM 62.6 °F 62.6 °F 100% 29.92 in 7.0 mi SE 3.5 mph - N/A   Overcast
4:35 AM 62.4 °F 62.4 °F 100% 29.91 in 5.0 mi SE 3.5 mph - N/A   Overcast
4:55 AM 62.2 °F 62.2 °F 100% 29.92 in 4.0 mi Calm Calm - N/A   Overcast
5:15 AM 62.1 °F 62.1 °F 100% 29.91 in 3.0 mi SE 3.5 mph - N/A   Overcast
5:35 AM 61.9 °F 61.9 °F 100% 29.90 in 4.0 mi SE 3.5 mph - N/A Rain Rain
5:55 AM 61.7 °F 61.7 °F 100% 29.90 in 5.0 mi SE 3.5 mph - N/A   Light Drizzle
6:15 AM 61.7 °F 61.7 °F 100% 29.90 in 10.0 mi SSE 4.6 mph - N/A   Overcast
6:35 AM 61.7 °F 61.7 °F 100% 29.90 in 10.0 mi SSE 4.6 mph - N/A   Overcast
6:55 AM 61.9 °F 61.9 °F 100% 29.90 in 7.0 mi SSE 3.5 mph - N/A   Overcast
7:15 AM 61.9 °F 61.9 °F 100% 29.90 in 7.0 mi Calm Calm - N/A   Overcast
7:35 AM 62.1 °F 62.1 °F 100% 29.91 in 7.0 mi Calm Calm - N/A   Overcast
7:55 AM 62.4 °F 62.4 °F 100% 29.92 in 7.0 mi Calm Calm - N/A   Overcast
8:15 AM 61.9 °F 61.9 °F 100% 29.91 in 4.0 mi Calm Calm - N/A   Overcast
8:35 AM 62.1 °F 62.1 °F 100% 29.92 in 4.0 mi Calm Calm - N/A   Overcast
8:55 AM 62.4 °F 62.4 °F 100% 29.92 in 5.0 mi Calm Calm - N/A   Overcast
9:15 AM 62.8 °F 62.8 °F 100% 29.92 in 5.0 mi Calm Calm - N/A   Overcast
9:35 AM 63.1 °F 63.1 °F 100% 29.91 in 4.0 mi Calm Calm - N/A   Overcast
9:55 AM 63.0 °F 63.0 °F 100% 29.92 in 5.0 mi Calm Calm - N/A   Overcast
10:15 AM 63.5 °F 63.5 °F 100% 29.91 in 5.0 mi Calm Calm - N/A Rain Heavy Rain
10:35 AM 63.9 °F 63.9 °F 100% 29.90 in 4.0 mi Calm Calm - N/A   Drizzle
10:55 AM 64.0 °F 64.0 °F 100% 29.90 in 10.0 mi Calm Calm - N/A   Overcast
11:15 AM 64.4 °F 64.4 °F 100% 29.90 in 10.0 mi Calm Calm - N/A   Overcast
11:35 AM 64.4 °F 64.4 °F 100% 29.88 in 7.0 mi SSE 4.6 mph - N/A Rain Rain
12:15 PM 65.3 °F 65.3 °F 100% 29.86 in 10.0 mi SSE 3.5 mph - N/A   Overcast
12:35 PM 64.9 °F 64.9 °F 100% 29.84 in 7.0 mi SE 3.5 mph - N/A   Light Drizzle
12:55 PM 66.2 °F 64.0 °F 93% 29.83 in 10.0 mi SSE 4.6 mph - N/A   Overcast
1:15 PM 66.7 °F 63.5 °F 89% 29.81 in 10.0 mi SSE 4.6 mph - N/A Rain Light Rain
1:35 PM 67.6 °F 61.7 °F 81% 29.80 in 10.0 mi SSW 6.9 mph - N/A   Overcast
1:55 PM 69.4 °F 61.2 °F 75% 29.78 in 10.0 mi South 12.7 mph 17.3 mph N/A   Mostly Cloudy
2:15 PM 70.7 °F 59.9 °F 69% 29.77 in 10.0 mi South 8.1 mph - N/A   Mostly Cloudy
2:35 PM 71.1 °F 59.7 °F 67% 29.76 in 10.0 mi South 8.1 mph - N/A   Overcast
2:55 PM 71.2 °F 59.5 °F 66% 29.75 in 10.0 mi SSW 5.8 mph - N/A   Overcast
3:15 PM 72.1 °F 59.4 °F 64% 29.73 in 10.0 mi South 10.4 mph - N/A   Mostly Cloudy
3:35 PM 72.9 °F 59.2 °F 62% 29.72 in 10.0 mi South 9.2 mph - N/A   Scattered Clouds
3:55 PM 73.2 °F 58.3 °F 59% 29.71 in 10.0 mi SSW 6.9 mph - N/A   Scattered Clouds
4:15 PM 72.9 °F 58.6 °F 61% 29.71 in 10.0 mi SSW 9.2 mph - N/A   Scattered Clouds
4:35 PM 72.7 °F 58.6 °F 61% 29.70 in 10.0 mi SSW 5.8 mph - N/A   Scattered Clouds
4:55 PM 72.9 °F 58.3 °F 60% 29.69 in 10.0 mi SSW 4.6 mph - N/A   Scattered Clouds
5:15 PM 75.2 °F 57.7 °F 54% 29.69 in 10.0 mi SSW 5.8 mph - N/A   Clear
5:35 PM 72.7 °F 57.2 °F 58% 29.69 in 10.0 mi South 5.8 mph - N/A   Clear
5:55 PM 72.1 °F 54.9 °F 54% 29.69 in 10.0 mi SSW 5.8 mph - N/A   Clear
6:15 PM 71.6 °F 55.6 °F 57% 29.69 in 10.0 mi South 4.6 mph - N/A   Clear
6:35 PM 70.7 °F 55.4 °F 58% 29.69 in 10.0 mi South 3.5 mph - N/A   Clear
6:55 PM 69.6 °F 55.0 °F 60% 29.69 in 10.0 mi SSW 3.5 mph - N/A   Clear
7:15 PM 69.1 °F 54.7 °F 60% 29.68 in 10.0 mi South 6.9 mph - N/A   Clear
7:35 PM 68.9 °F 54.5 °F 60% 29.68 in 10.0 mi South 5.8 mph - N/A   Clear
7:55 PM 68.5 °F 54.5 °F 61% 29.69 in 10.0 mi South 6.9 mph - N/A   Clear
8:15 PM 68.2 °F 54.0 °F 60% 29.69 in 10.0 mi South 8.1 mph - N/A   Clear
8:35 PM 68.4 °F 52.7 °F 57% 29.69 in 10.0 mi SSW 4.6 mph - N/A   Clear
8:55 PM 69.3 °F 51.3 °F 53% 29.70 in 10.0 mi SSW 5.8 mph - N/A   Clear
9:15 PM 69.1 °F 51.3 °F 53% 29.71 in 10.0 mi SSW 5.8 mph - N/A   Clear
9:35 PM 69.1 °F 50.9 °F 52% 29.72 in 10.0 mi SSW 5.8 mph - N/A   Clear
9:55 PM 68.2 °F 50.9 °F 54% 29.73 in 10.0 mi SW 5.8 mph - N/A   Clear
10:15 PM 68.5 °F 50.9 °F 53% 29.73 in 10.0 mi SW 8.1 mph - N/A   Clear
10:35 PM 68.2 °F 50.9 °F 54% 29.73 in 10.0 mi SSW 4.6 mph - N/A   Clear
10:55 PM 67.8 °F 50.7 °F 54% 29.72 in 10.0 mi SW 4.6 mph - N/A   Clear
11:15 PM 67.1 °F 50.5 °F 55% 29.72 in 10.0 mi SSW 4.6 mph - N/A   Clear
11:35 PM 66.2 °F 50.5 °F 57% 29.71 in 10.0 mi SSW 3.5 mph - N/A   Clear
11:55 PM 65.3 °F 50.2 °F 58% 29.71 in 10.0 mi SSW 3.5 mph - N/A   Clear